Time,TemperatureF,DewpointF,PressureIn,WindDirection,WindDirectionDegrees,WindSpeedMPH,WindSpeedGustMPH,Humidity,HourlyPrecipIn,Conditions,Clouds,dailyrainin,SoftwareType,DateUTC
2013-02-14 00:04:00,32.2,29.3,29.70,South,182,6.0,9.0,89,0.00,,,0.00,meteohub,2013-02-14 06:04:00,
2013-02-14 00:09:00,32.2,29.3,29.70,South,180,6.0,10.0,89,0.00,,,0.00,meteohub,2013-02-14 06:09:00,
2013-02-14 00:14:00,32.2,29.3,29.70,South,170,8.0,11.0,89,0.00,,,0.00,meteohub,2013-02-14 06:14:00,
2013-02-14 00:19:00,32.2,29.3,29.70,South,180,5.0,11.0,89,0.00,,,0.00,meteohub,2013-02-14 06:19:00,
2013-02-14 00:24:00,32.2,29.3,29.70,South,179,6.0,11.0,89,0.00,,,0.00,meteohub,2013-02-14 06:24:00,
2013-02-14 00:30:00,32.4,29.5,29.70,South,184,6.0,9.0,89,0.00,,,0.00,meteohub,2013-02-14 06:30:00,
2013-02-14 00:35:00,32.4,29.5,29.69,South,183,5.0,10.0,89,0.00,,,0.00,meteohub,2013-02-14 06:35:00,
2013-02-14 00:40:00,32.4,29.5,29.69,South,178,7.0,12.0,89,0.00,,,0.00,meteohub,2013-02-14 06:40:00,
2013-02-14 00:45:00,32.4,29.5,29.69,South,184,8.0,12.0,89,0.00,,,0.00,meteohub,2013-02-14 06:45:00,
2013-02-14 00:50:00,32.4,29.5,29.69,South,183,7.0,12.0,89,0.00,,,0.00,meteohub,2013-02-14 06:50:00,
2013-02-14 00:55:00,32.5,29.7,29.69,South,181,10.0,12.0,89,0.00,,,0.00,meteohub,2013-02-14 06:55:00,
2013-02-14 01:01:00,32.5,29.7,29.69,South,183,13.0,13.0,89,0.00,,,0.00,meteohub,2013-02-14 07:01:00,
2013-02-14 01:06:00,32.7,29.8,29.69,South,178,9.0,13.0,89,0.00,,,0.00,meteohub,2013-02-14 07:06:00,
2013-02-14 01:11:00,32.7,29.8,29.68,South,178,6.0,13.0,89,0.00,,,0.00,meteohub,2013-02-14 07:11:00,
2013-02-14 01:16:00,32.9,30.0,29.68,South,186,7.0,13.0,89,0.00,,,0.00,meteohub,2013-02-14 07:16:00,
2013-02-14 01:21:00,32.7,30.2,29.68,South,182,11.0,13.0,90,0.00,,,0.00,meteohub,2013-02-14 07:21:00,
2013-02-14 01:26:00,32.7,30.2,29.68,South,181,7.0,13.0,90,0.00,,,0.00,meteohub,2013-02-14 07:26:00,
2013-02-14 01:31:00,32.5,30.2,29.68,SSW,199,5.0,11.0,91,0.00,,,0.00,meteohub,2013-02-14 07:31:00,
2013-02-14 01:37:00,32.5,30.6,29.68,South,170,5.0,11.0,92,0.00,,,0.00,meteohub,2013-02-14 07:37:00,
2013-02-14 01:42:00,32.5,30.6,29.67,SSE,167,6.0,10.0,92,0.00,,,0.00,meteohub,2013-02-14 07:42:00,
2013-02-14 01:47:00,32.7,30.7,29.67,South,176,6.0,10.0,92,0.00,,,0.00,meteohub,2013-02-14 07:47:00,
2013-02-14 01:52:00,32.7,30.9,29.67,SSE,164,6.0,9.0,93,0.00,,,0.00,meteohub,2013-02-14 07:52:00,
2013-02-14 01:57:00,32.9,31.1,29.67,South,177,5.0,9.0,93,0.00,,,0.00,meteohub,2013-02-14 07:57:00,
2013-02-14 02:02:00,33.1,31.5,29.67,South,173,3.0,10.0,94,0.00,,,0.00,meteohub,2013-02-14 08:02:00,
2013-02-14 02:07:00,33.1,31.5,29.66,South,182,7.0,10.0,94,0.00,,,0.00,meteohub,2013-02-14 08:07:00,
2013-02-14 02:12:00,33.1,31.5,29.66,South,169,6.0,10.0,94,0.00,,,0.00,meteohub,2013-02-14 08:12:00,
2013-02-14 02:17:00,33.3,31.6,29.66,SSE,160,7.0,11.0,94,0.00,,,0.00,meteohub,2013-02-14 08:17:00,
2013-02-14 02:22:00,33.1,31.5,29.65,SSE,155,5.0,11.0,94,0.00,,,0.00,meteohub,2013-02-14 08:22:00,
2013-02-14 02:27:00,33.1,31.8,29.65,SSE,165,6.0,11.0,95,0.00,,,0.00,meteohub,2013-02-14 08:27:00,
2013-02-14 02:32:00,33.3,32.0,29.65,SSE,155,5.0,10.0,95,0.00,,,0.00,meteohub,2013-02-14 08:32:00,
2013-02-14 02:37:00,33.3,32.0,29.64,South,178,4.0,10.0,95,0.00,,,0.00,meteohub,2013-02-14 08:37:00,
2013-02-14 02:42:00,33.3,32.0,29.64,South,173,6.0,10.0,95,0.00,,,0.00,meteohub,2013-02-14 08:42:00,
2013-02-14 02:47:00,33.3,32.0,29.64,South,172,5.0,10.0,95,0.00,,,0.00,meteohub,2013-02-14 08:47:00,
2013-02-14 02:52:00,33.3,32.0,29.63,South,170,6.0,11.0,95,0.00,,,0.00,meteohub,2013-02-14 08:52:00,
2013-02-14 02:57:00,33.4,32.2,29.63,South,171,8.0,11.0,95,0.00,,,0.00,meteohub,2013-02-14 08:57:00,
2013-02-14 03:02:00,33.4,32.2,29.62,South,178,6.0,10.0,95,0.00,,,0.00,meteohub,2013-02-14 09:02:00,
2013-02-14 03:07:00,33.6,32.4,29.62,SSE,161,4.0,10.0,95,0.00,,,0.00,meteohub,2013-02-14 09:07:00,
2013-02-14 03:12:00,33.6,32.4,29.62,South,172,6.0,10.0,95,0.00,,,0.00,meteohub,2013-02-14 09:12:00,
2013-02-14 03:17:00,33.8,32.5,29.62,South,173,4.0,10.0,95,0.00,,,0.00,meteohub,2013-02-14 09:17:00,
2013-02-14 03:22:00,34.0,32.9,29.62,SSE,166,7.0,11.0,96,0.00,,,0.00,meteohub,2013-02-14 09:22:00,
2013-02-14 03:27:00,34.0,32.7,29.61,South,175,4.0,11.0,95,0.00,,,0.00,meteohub,2013-02-14 09:27:00,
2013-02-14 03:32:00,34.2,33.1,29.61,SSE,149,9.0,12.0,96,0.00,,,0.00,meteohub,2013-02-14 09:32:00,
2013-02-14 03:37:00,34.2,32.9,29.61,South,184,7.0,12.0,95,0.00,,,0.00,meteohub,2013-02-14 09:37:00,
2013-02-14 03:42:00,34.2,32.9,29.61,South,173,7.0,12.0,95,0.00,,,0.00,meteohub,2013-02-14 09:42:00,
2013-02-14 03:47:00,34.3,33.1,29.61,South,173,6.0,11.0,95,0.00,,,0.00,meteohub,2013-02-14 09:47:00,
2013-02-14 03:52:00,34.2,32.9,29.60,SSE,163,6.0,11.0,95,0.01,,,0.01,meteohub,2013-02-14 09:52:00,
2013-02-14 03:57:00,34.3,33.1,29.60,South,172,5.0,11.0,95,0.01,,,0.01,meteohub,2013-02-14 09:57:00,
2013-02-14 04:02:00,34.3,33.1,29.60,South,180,6.0,9.0,95,0.01,,,0.01,meteohub,2013-02-14 10:02:00,
2013-02-14 04:07:00,34.3,33.1,29.60,South,178,9.0,9.0,95,0.01,,,0.01,meteohub,2013-02-14 10:07:00,
2013-02-14 04:12:00,34.3,33.1,29.60,South,179,6.0,10.0,95,0.02,,,0.02,meteohub,2013-02-14 10:12:00,
2013-02-14 04:17:00,34.3,33.1,29.60,SSW,192,7.0,10.0,95,0.02,,,0.02,meteohub,2013-02-14 10:17:00,
2013-02-14 04:22:00,34.5,33.3,29.60,South,179,6.0,11.0,95,0.02,,,0.02,meteohub,2013-02-14 10:22:00,
2013-02-14 04:27:00,34.5,32.9,29.60,South,190,8.0,11.0,94,0.02,,,0.02,meteohub,2013-02-14 10:27:00,
2013-02-14 04:32:00,34.5,32.9,29.60,South,191,9.0,11.0,94,0.02,,,0.02,meteohub,2013-02-14 10:32:00,
2013-02-14 04:37:00,34.5,32.9,29.60,SSW,204,8.0,12.0,94,0.02,,,0.02,meteohub,2013-02-14 10:37:00,
2013-02-14 04:42:00,34.5,32.9,29.60,South,189,8.0,12.0,94,0.02,,,0.02,meteohub,2013-02-14 10:42:00,
2013-02-14 04:47:00,34.5,32.9,29.60,South,190,9.0,13.0,94,0.02,,,0.03,meteohub,2013-02-14 10:47:00,
2013-02-14 04:52:00,34.3,32.7,29.59,South,184,8.0,13.0,94,0.02,,,0.03,meteohub,2013-02-14 10:52:00,
2013-02-14 04:57:00,34.3,32.7,29.59,South,173,9.0,13.0,94,0.02,,,0.03,meteohub,2013-02-14 10:57:00,
2013-02-14 05:02:00,34.5,32.9,29.59,South,182,8.0,13.0,94,0.02,,,0.03,meteohub,2013-02-14 11:02:00,
2013-02-14 05:07:00,34.5,32.9,29.59,South,184,8.0,16.0,94,0.03,,,0.04,meteohub,2013-02-14 11:07:00,
2013-02-14 05:12:00,34.5,32.9,29.60,South,181,7.0,16.0,94,0.02,,,0.04,meteohub,2013-02-14 11:12:00,
2013-02-14 05:17:00,34.5,32.7,29.59,SSW,196,10.0,16.0,93,0.02,,,0.04,meteohub,2013-02-14 11:17:00,
2013-02-14 05:22:00,34.5,32.7,29.59,South,183,6.0,11.0,93,0.02,,,0.04,meteohub,2013-02-14 11:22:00,
2013-02-14 05:27:00,34.3,32.5,29.59,South,178,7.0,11.0,93,0.02,,,0.04,meteohub,2013-02-14 11:27:00,
2013-02-14 05:32:00,34.3,32.5,29.59,South,187,9.0,11.0,93,0.02,,,0.04,meteohub,2013-02-14 11:32:00,
2013-02-14 05:37:00,34.5,32.7,29.59,SSW,200,9.0,11.0,93,0.03,,,0.05,meteohub,2013-02-14 11:37:00,
2013-02-14 05:42:00,34.7,32.9,29.59,South,187,6.0,12.0,93,0.03,,,0.05,meteohub,2013-02-14 11:42:00,
2013-02-14 05:47:00,34.9,33.1,29.59,South,188,7.0,12.0,93,0.02,,,0.05,meteohub,2013-02-14 11:47:00,
2013-02-14 05:52:00,34.9,33.1,29.59,SSE,167,6.0,12.0,93,0.02,,,0.05,meteohub,2013-02-14 11:52:00,
2013-02-14 05:57:00,34.9,32.7,29.59,South,190,5.0,11.0,92,0.02,,,0.05,meteohub,2013-02-14 11:57:00,
2013-02-14 06:02:00,34.7,32.5,29.59,SSW,199,7.0,11.0,92,0.01,,,0.05,meteohub,2013-02-14 12:02:00,
2013-02-14 06:07:00,34.7,32.5,29.59,SSW,195,7.0,11.0,92,0.01,,,0.05,meteohub,2013-02-14 12:07:00,
2013-02-14 06:12:00,34.5,32.4,29.59,SSW,192,7.0,10.0,92,0.02,,,0.06,meteohub,2013-02-14 12:12:00,
2013-02-14 06:17:00,34.5,32.4,29.59,South,188,7.0,10.0,92,0.02,,,0.06,meteohub,2013-02-14 12:17:00,
2013-02-14 06:22:00,34.5,32.4,29.59,South,189,6.0,10.0,92,0.02,,,0.06,meteohub,2013-02-14 12:22:00,
2013-02-14 06:27:00,34.5,32.4,29.59,SSW,192,6.0,10.0,92,0.02,,,0.06,meteohub,2013-02-14 12:27:00,
2013-02-14 06:32:00,34.5,32.4,29.59,South,188,6.0,10.0,92,0.02,,,0.06,meteohub,2013-02-14 12:32:00,
2013-02-14 06:37:00,34.5,32.4,29.59,SSW,197,7.0,10.0,92,0.01,,,0.06,meteohub,2013-02-14 12:37:00,
2013-02-14 06:42:00,34.5,32.4,29.59,SSW,205,7.0,9.0,92,0.01,,,0.06,meteohub,2013-02-14 12:42:00,
2013-02-14 06:47:00,34.3,32.2,29.60,SSW,210,6.0,9.0,92,0.01,,,0.06,meteohub,2013-02-14 12:47:00,
2013-02-14 06:52:00,34.3,32.2,29.59,SSW,207,5.0,8.0,92,0.01,,,0.06,meteohub,2013-02-14 12:52:00,
2013-02-14 06:57:00,34.2,32.0,29.59,SSW,197,7.0,8.0,92,0.01,,,0.06,meteohub,2013-02-14 12:57:00,
2013-02-14 07:02:00,34.2,32.0,29.59,SSW,205,5.0,8.0,92,0.01,,,0.06,meteohub,2013-02-14 13:02:00,
2013-02-14 07:07:00,34.2,32.0,29.59,SSW,209,6.0,8.0,92,0.00,,,0.06,meteohub,2013-02-14 13:07:00,
2013-02-14 07:12:00,34.2,32.0,29.59,SSW,194,6.0,8.0,92,0.00,,,0.06,meteohub,2013-02-14 13:12:00,
2013-02-14 07:17:00,34.2,32.0,29.59,SSW,194,3.0,8.0,92,0.00,,,0.06,meteohub,2013-02-14 13:17:00,
2013-02-14 07:22:00,34.0,31.8,29.60,SSW,200,4.0,7.0,92,0.00,,,0.06,meteohub,2013-02-14 13:22:00,
2013-02-14 07:27:00,34.2,32.0,29.60,SSW,208,4.0,7.0,92,0.00,,,0.06,meteohub,2013-02-14 13:27:00,
2013-02-14 07:32:00,34.2,32.4,29.60,SSW,207,7.0,7.0,93,0.01,,,0.07,meteohub,2013-02-14 13:32:00,
2013-02-14 07:37:00,34.2,32.0,29.60,SSW,211,6.0,8.0,92,0.01,,,0.07,meteohub,2013-02-14 13:37:00,
2013-02-14 07:42:00,34.2,32.0,29.60,SSW,205,4.0,9.0,92,0.01,,,0.07,meteohub,2013-02-14 13:42:00,
2013-02-14 07:47:00,34.2,32.0,29.60,SSW,201,6.0,9.0,92,0.01,,,0.07,meteohub,2013-02-14 13:47:00,
2013-02-14 07:52:00,34.2,32.0,29.60,SSW,202,5.0,7.0,92,0.01,,,0.07,meteohub,2013-02-14 13:52:00,
2013-02-14 07:57:00,34.2,32.0,29.60,SSW,199,5.0,7.0,92,0.01,,,0.07,meteohub,2013-02-14 13:57:00,
2013-02-14 08:02:00,34.0,31.8,29.60,SSW,207,5.0,7.0,92,0.01,,,0.07,meteohub,2013-02-14 14:02:00,
2013-02-14 08:07:00,34.2,32.0,29.60,SSW,207,3.0,7.0,92,0.01,,,0.07,meteohub,2013-02-14 14:07:00,
2013-02-14 08:12:00,34.2,32.4,29.60,SSW,207,3.0,7.0,93,0.01,,,0.07,meteohub,2013-02-14 14:12:00,
2013-02-14 08:17:00,34.2,32.4,29.60,SW,225,5.0,7.0,93,0.01,,,0.07,meteohub,2013-02-14 14:17:00,
2013-02-14 08:22:00,34.3,32.2,29.61,WSW,244,6.0,9.0,92,0.01,,,0.07,meteohub,2013-02-14 14:22:00,
2013-02-14 08:27:00,34.3,32.2,29.61,WSW,248,3.0,9.0,92,0.01,,,0.07,meteohub,2013-02-14 14:27:00,
2013-02-14 08:32:00,34.5,32.4,29.61,WSW,258,8.0,9.0,92,0.01,,,0.08,meteohub,2013-02-14 14:32:00,
2013-02-14 08:37:00,34.5,32.4,29.61,West,269,3.0,8.0,92,0.01,,,0.08,meteohub,2013-02-14 14:37:00,
2013-02-14 08:42:00,34.5,32.4,29.61,West,260,7.0,9.0,92,0.01,,,0.08,meteohub,2013-02-14 14:42:00,
2013-02-14 08:47:00,34.5,32.4,29.61,WSW,257,5.0,9.0,92,0.01,,,0.08,meteohub,2013-02-14 14:47:00,
2013-02-14 08:52:00,34.5,32.7,29.61,WSW,254,5.0,10.0,93,0.01,,,0.08,meteohub,2013-02-14 14:52:00,
2013-02-14 08:57:00,34.5,32.7,29.61,West,267,4.0,10.0,93,0.01,,,0.08,meteohub,2013-02-14 14:57:00,
2013-02-14 09:02:00,34.5,32.7,29.61,WSW,253,5.0,10.0,93,0.01,,,0.08,meteohub,2013-02-14 15:02:00,
2013-02-14 09:07:00,34.5,32.7,29.61,WSW,254,6.0,10.0,93,0.01,,,0.08,meteohub,2013-02-14 15:07:00,
2013-02-14 09:12:00,34.3,32.5,29.61,WNW,285,6.0,10.0,93,0.02,,,0.09,meteohub,2013-02-14 15:12:00,
2013-02-14 09:17:00,34.3,32.7,29.62,West,281,5.0,10.0,94,0.02,,,0.09,meteohub,2013-02-14 15:17:00,
2013-02-14 09:22:00,34.3,32.7,29.62,West,268,6.0,8.0,94,0.02,,,0.09,meteohub,2013-02-14 15:22:00,
2013-02-14 09:27:00,34.5,32.9,29.62,West,265,7.0,9.0,94,0.01,,,0.09,meteohub,2013-02-14 15:27:00,
2013-02-14 09:32:00,34.3,32.7,29.62,West,265,6.0,11.0,94,0.01,,,0.09,meteohub,2013-02-14 15:32:00,
2013-02-14 09:37:00,34.3,32.7,29.62,WSW,245,7.0,11.0,94,0.01,,,0.09,meteohub,2013-02-14 15:37:00,
2013-02-14 09:42:00,34.3,32.7,29.62,West,265,5.0,11.0,94,0.01,,,0.09,meteohub,2013-02-14 15:42:00,
2013-02-14 09:47:00,34.2,32.5,29.62,WSW,254,7.0,9.0,94,0.02,,,0.10,meteohub,2013-02-14 15:47:00,
2013-02-14 09:52:00,34.2,32.5,29.63,West,269,3.0,9.0,94,0.02,,,0.10,meteohub,2013-02-14 15:52:00,
2013-02-14 09:57:00,34.2,32.5,29.63,West,272,3.0,9.0,94,0.02,,,0.10,meteohub,2013-02-14 15:57:00,
2013-02-14 10:02:00,34.0,32.4,29.63,West,268,4.0,9.0,94,0.02,,,0.10,meteohub,2013-02-14 16:02:00,
2013-02-14 10:07:00,34.0,32.4,29.63,West,261,2.0,8.0,94,0.02,,,0.10,meteohub,2013-02-14 16:07:00,
2013-02-14 10:12:00,33.8,32.2,29.63,West,267,2.0,8.0,94,0.01,,,0.10,meteohub,2013-02-14 16:12:00,
2013-02-14 10:17:00,33.8,32.5,29.64,NNW,328,2.0,9.0,95,0.01,,,0.10,meteohub,2013-02-14 16:17:00,
2013-02-14 10:22:00,34.0,32.7,29.64,WNW,289,0.0,9.0,95,0.01,,,0.10,meteohub,2013-02-14 16:22:00,
2013-02-14 10:27:00,33.6,32.4,29.64,NW,318,3.0,9.0,95,0.01,,,0.10,meteohub,2013-02-14 16:27:00,
2013-02-14 10:32:00,33.4,31.8,29.65,NW,325,5.0,8.0,94,0.01,,,0.10,meteohub,2013-02-14 16:32:00,
2013-02-14 10:37:00,33.1,31.5,29.65,NNW,335,5.0,10.0,94,0.01,,,0.10,meteohub,2013-02-14 16:37:00,
2013-02-14 10:42:00,32.9,31.6,29.65,NNW,329,6.0,12.0,95,0.01,,,0.10,meteohub,2013-02-14 16:42:00,
2013-02-14 10:47:00,32.7,31.1,29.65,NW,316,9.0,12.0,94,0.00,,,0.10,meteohub,2013-02-14 16:47:00,
2013-02-14 10:52:00,32.7,31.5,29.65,NW,315,7.0,12.0,95,0.00,,,0.10,meteohub,2013-02-14 16:52:00,
2013-02-14 10:57:00,32.5,31.3,29.66,NW,313,2.0,14.0,95,0.01,,,0.11,meteohub,2013-02-14 16:57:00,
2013-02-14 11:02:00,32.5,31.3,29.66,NW,304,3.0,15.0,95,0.01,,,0.11,meteohub,2013-02-14 17:02:00,
2013-02-14 11:07:00,32.7,31.5,29.67,NW,317,7.0,15.0,95,0.01,,,0.11,meteohub,2013-02-14 17:07:00,
2013-02-14 11:12:00,32.7,31.5,29.67,NW,315,5.0,15.0,95,0.01,,,0.11,meteohub,2013-02-14 17:12:00,
2013-02-14 11:17:00,32.7,31.5,29.67,WNW,290,5.0,11.0,95,0.01,,,0.11,meteohub,2013-02-14 17:17:00,
2013-02-14 11:22:00,32.7,31.5,29.68,NW,312,7.0,13.0,95,0.01,,,0.11,meteohub,2013-02-14 17:22:00,
2013-02-14 11:27:00,32.5,30.9,29.68,NW,312,5.0,14.0,94,0.01,,,0.11,meteohub,2013-02-14 17:27:00,
2013-02-14 11:33:00,32.5,31.3,29.68,NW,311,11.0,16.0,95,0.01,,,0.11,meteohub,2013-02-14 17:33:00,
2013-02-14 11:38:00,32.5,31.3,29.69,NW,313,11.0,16.0,95,0.01,,,0.11,meteohub,2013-02-14 17:38:00,
2013-02-14 11:43:00,32.5,31.3,29.69,NW,318,9.0,16.0,95,0.01,,,0.11,meteohub,2013-02-14 17:43:00,
2013-02-14 11:48:00,32.5,31.3,29.69,NW,321,6.0,15.0,95,0.01,,,0.11,meteohub,2013-02-14 17:48:00,
2013-02-14 11:53:00,32.5,31.3,29.70,NW,310,3.0,15.0,95,0.01,,,0.11,meteohub,2013-02-14 17:53:00,
2013-02-14 11:58:00,32.5,31.3,29.70,NW,316,4.0,15.0,95,0.00,,,0.11,meteohub,2013-02-14 17:58:00,
2013-02-14 12:04:00,32.5,31.3,29.70,NW,314,7.0,12.0,95,0.00,,,0.11,meteohub,2013-02-14 18:04:00,
2013-02-14 12:09:00,32.4,31.1,29.70,NW,323,8.0,11.0,95,0.00,,,0.11,meteohub,2013-02-14 18:09:00,
2013-02-14 12:14:00,32.2,30.9,29.70,NNW,329,8.0,11.0,95,0.00,,,0.11,meteohub,2013-02-14 18:14:00,
2013-02-14 12:19:00,32.0,30.7,29.70,NNW,330,8.0,15.0,95,0.00,,,0.11,meteohub,2013-02-14 18:19:00,
2013-02-14 12:24:00,31.6,30.4,29.70,NNW,342,14.0,16.0,95,0.00,,,0.11,meteohub,2013-02-14 18:24:00,
2013-02-14 12:29:00,31.6,30.4,29.71,NNW,329,10.0,18.0,95,0.00,,,0.11,meteohub,2013-02-14 18:29:00,
2013-02-14 12:34:00,31.8,30.6,29.71,NNW,340,12.0,18.0,95,0.00,,,0.11,meteohub,2013-02-14 18:34:00,
2013-02-14 12:40:00,32.0,30.7,29.71,NW,323,9.0,18.0,95,0.01,,,0.12,meteohub,2013-02-14 18:40:00,
2013-02-14 12:45:00,31.8,30.4,29.72,NW,317,9.0,17.0,94,0.01,,,0.12,meteohub,2013-02-14 18:45:00,
2013-02-14 12:50:00,31.8,30.4,29.72,NW,318,10.0,17.0,94,0.01,,,0.12,meteohub,2013-02-14 18:50:00,
2013-02-14 12:55:00,31.8,30.4,29.72,NW,318,11.0,17.0,94,0.01,,,0.12,meteohub,2013-02-14 18:55:00,
2013-02-14 13:00:00,32.0,30.6,29.73,NW,311,10.0,15.0,94,0.01,,,0.12,meteohub,2013-02-14 19:00:00,
2013-02-14 13:05:00,32.0,30.6,29.73,NW,321,8.0,15.0,94,0.01,,,0.12,meteohub,2013-02-14 19:05:00,
2013-02-14 13:11:00,32.0,32.0,29.74,NW,317,4.0,15.0,100,0.01,,,0.12,meteohub,2013-02-14 19:11:00,
2013-02-14 13:16:00,32.0,30.6,29.74,West,275,2.0,12.0,94,0.01,,,0.12,meteohub,2013-02-14 19:16:00,
2013-02-14 13:21:00,31.8,30.0,29.75,West,266,2.0,12.0,93,0.01,,,0.12,meteohub,2013-02-14 19:21:00,
2013-02-14 13:26:00,31.8,30.0,29.75,West,268,2.0,11.0,93,0.01,,,0.12,meteohub,2013-02-14 19:26:00,
2013-02-14 13:31:00,31.8,30.0,29.75,West,276,3.0,10.0,93,0.00,,,0.12,meteohub,2013-02-14 19:31:00,
2013-02-14 13:37:00,32.0,30.2,29.75,West,279,0.0,9.0,93,0.00,,,0.12,meteohub,2013-02-14 19:37:00,
2013-02-14 13:42:00,32.2,30.4,29.75,WNW,283,1.0,9.0,93,0.00,,,0.12,meteohub,2013-02-14 19:42:00,
2013-02-14 13:47:00,32.2,30.2,29.75,West,277,3.0,9.0,92,0.00,,,0.12,meteohub,2013-02-14 19:47:00,
2013-02-14 13:52:00,32.2,30.2,29.76,WSW,248,3.0,9.0,92,0.00,,,0.12,meteohub,2013-02-14 19:52:00,
2013-02-14 13:57:00,32.2,30.2,29.76,West,275,5.0,8.0,92,0.00,,,0.12,meteohub,2013-02-14 19:57:00,
2013-02-14 14:02:00,31.8,29.5,29.77,WNW,288,2.0,13.0,91,0.00,,,0.12,meteohub,2013-02-14 20:02:00,
2013-02-14 14:07:00,31.6,29.3,29.77,West,279,7.0,13.0,91,0.00,,,0.12,meteohub,2013-02-14 20:07:00,
2013-02-14 14:12:00,31.3,28.9,29.77,WNW,283,7.0,13.0,91,0.00,,,0.12,meteohub,2013-02-14 20:12:00,
2013-02-14 14:17:00,31.3,28.9,29.78,West,271,5.0,14.0,91,0.00,,,0.12,meteohub,2013-02-14 20:17:00,
2013-02-14 14:22:00,31.5,29.1,29.78,West,273,7.0,14.0,91,0.00,,,0.12,meteohub,2013-02-14 20:22:00,
2013-02-14 14:27:00,31.5,28.9,29.78,West,278,8.0,13.0,90,0.00,,,0.12,meteohub,2013-02-14 20:27:00,
2013-02-14 14:32:00,31.5,28.9,29.78,West,280,4.0,13.0,90,0.00,,,0.12,meteohub,2013-02-14 20:32:00,
2013-02-14 14:37:00,31.5,28.9,29.78,WNW,290,11.0,13.0,90,0.00,,,0.12,meteohub,2013-02-14 20:37:00,
2013-02-14 14:42:00,31.3,28.8,29.79,West,269,6.0,12.0,90,0.00,,,0.12,meteohub,2013-02-14 20:42:00,
2013-02-14 14:47:00,31.3,28.8,29.79,West,276,7.0,12.0,90,0.00,,,0.12,meteohub,2013-02-14 20:47:00,
2013-02-14 14:52:00,31.1,28.2,29.79,West,267,4.0,13.0,89,0.00,,,0.12,meteohub,2013-02-14 20:52:00,
2013-02-14 14:57:00,30.9,28.4,29.80,West,273,6.0,15.0,90,0.00,,,0.12,meteohub,2013-02-14 20:57:00,
2013-02-14 15:02:00,30.7,28.2,29.80,WNW,290,5.0,15.0,90,0.00,,,0.12,meteohub,2013-02-14 21:02:00,
2013-02-14 15:07:00,30.6,28.0,29.80,West,279,8.0,15.0,90,0.00,,,0.12,meteohub,2013-02-14 21:07:00,
2013-02-14 15:12:00,30.6,28.2,29.81,West,272,4.0,15.0,91,0.00,,,0.12,meteohub,2013-02-14 21:12:00,
2013-02-14 15:17:00,30.6,28.2,29.81,WSW,250,6.0,15.0,91,0.00,,,0.12,meteohub,2013-02-14 21:17:00,
2013-02-14 15:22:00,30.6,28.2,29.81,SW,232,9.0,15.0,91,0.00,,,0.12,meteohub,2013-02-14 21:22:00,
2013-02-14 15:27:00,30.4,28.0,29.81,WSW,248,5.0,15.0,91,0.00,,,0.12,meteohub,2013-02-14 21:27:00,
2013-02-14 15:32:00,30.4,28.0,29.82,West,273,7.0,15.0,91,0.00,,,0.12,meteohub,2013-02-14 21:32:00,
2013-02-14 15:38:00,30.4,28.0,29.83,West,279,5.0,15.0,91,0.00,,,0.12,meteohub,2013-02-14 21:38:00,
2013-02-14 15:43:00,30.2,27.9,29.83,West,272,6.0,14.0,91,0.00,,,0.12,meteohub,2013-02-14 21:43:00,
2013-02-14 15:48:00,30.2,27.9,29.83,West,271,7.0,14.0,91,0.00,,,0.12,meteohub,2013-02-14 21:48:00,
2013-02-14 15:53:00,30.0,28.0,29.83,West,277,4.0,12.0,92,0.00,,,0.12,meteohub,2013-02-14 21:53:00,
2013-02-14 15:58:00,30.0,28.0,29.84,West,279,2.0,14.0,92,0.00,,,0.12,meteohub,2013-02-14 21:58:00,
2013-02-14 16:03:00,30.0,28.0,29.84,West,280,4.0,14.0,92,0.00,,,0.12,meteohub,2013-02-14 22:03:00,
2013-02-14 16:09:00,30.0,28.0,29.84,WNW,282,5.0,14.0,92,0.00,,,0.12,meteohub,2013-02-14 22:09:00,
2013-02-14 16:14:00,30.0,28.0,29.85,West,275,4.0,14.0,92,0.00,,,0.12,meteohub,2013-02-14 22:14:00,
2013-02-14 16:19:00,29.8,28.0,29.85,West,276,4.0,14.0,93,0.00,,,0.12,meteohub,2013-02-14 22:19:00,
2013-02-14 16:24:00,30.0,28.2,29.85,WSW,253,4.0,14.0,93,0.00,,,0.12,meteohub,2013-02-14 22:24:00,
2013-02-14 16:29:00,30.0,28.2,29.86,West,270,4.0,10.0,93,0.00,,,0.12,meteohub,2013-02-14 22:29:00,
2013-02-14 16:34:00,30.0,28.0,29.86,WSW,254,5.0,11.0,92,0.00,,,0.12,meteohub,2013-02-14 22:34:00,
2013-02-14 16:40:00,30.0,28.0,29.86,West,273,6.0,11.0,92,0.00,,,0.12,meteohub,2013-02-14 22:40:00,
2013-02-14 16:45:00,30.2,28.2,29.87,West,259,4.0,11.0,92,0.00,,,0.12,meteohub,2013-02-14 22:45:00,
2013-02-14 16:50:00,30.4,28.4,29.87,WSW,252,5.0,10.0,92,0.00,,,0.12,meteohub,2013-02-14 22:50:00,
2013-02-14 16:55:00,30.4,28.0,29.87,West,270,4.0,13.0,91,0.00,,,0.12,meteohub,2013-02-14 22:55:00,
2013-02-14 17:00:00,30.6,28.0,29.88,West,272,6.0,13.0,90,0.00,,,0.12,meteohub,2013-02-14 23:00:00,
2013-02-14 17:05:00,30.6,28.0,29.88,West,262,7.0,13.0,90,0.00,,,0.12,meteohub,2013-02-14 23:05:00,
2013-02-14 17:11:00,30.6,27.7,29.88,WSW,242,4.0,11.0,89,0.00,,,0.12,meteohub,2013-02-14 23:11:00,
2013-02-14 17:16:00,30.7,27.9,29.89,WSW,246,7.0,11.0,89,0.00,,,0.12,meteohub,2013-02-14 23:16:00,
2013-02-14 17:21:00,30.7,27.7,29.89,West,261,7.0,11.0,88,0.00,,,0.12,meteohub,2013-02-14 23:21:00,
2013-02-14 17:26:00,30.7,27.3,29.89,West,265,4.0,11.0,87,0.00,,,0.12,meteohub,2013-02-14 23:26:00,
2013-02-14 17:31:00,30.9,27.1,29.89,West,265,7.0,12.0,86,0.00,,,0.12,meteohub,2013-02-14 23:31:00,
2013-02-14 17:36:00,30.9,27.1,29.90,West,259,7.0,12.0,86,0.00,,,0.12,meteohub,2013-02-14 23:36:00,
2013-02-14 17:42:00,30.9,27.1,29.90,West,265,6.0,12.0,86,0.00,,,0.12,meteohub,2013-02-14 23:42:00,
2013-02-14 17:47:00,30.9,27.0,29.90,West,261,8.0,11.0,85,0.00,,,0.12,meteohub,2013-02-14 23:47:00,
2013-02-14 17:52:00,30.7,26.8,29.91,WNW,292,6.0,11.0,85,0.00,,,0.12,meteohub,2013-02-14 23:52:00,
2013-02-14 17:57:00,30.7,26.8,29.91,West,263,3.0,11.0,85,0.00,,,0.12,meteohub,2013-02-14 23:57:00,
2013-02-14 18:02:00,30.7,26.8,29.91,WSW,248,5.0,10.0,85,0.00,,,0.12,meteohub,2013-02-15 00:02:00,
2013-02-14 18:07:00,30.7,26.8,29.91,West,273,6.0,10.0,85,0.00,,,0.12,meteohub,2013-02-15 00:07:00,
2013-02-14 18:12:00,30.7,26.4,29.92,WSW,241,7.0,10.0,84,0.00,,,0.12,meteohub,2013-02-15 00:12:00,
2013-02-14 18:17:00,30.7,26.4,29.92,WSW,257,1.0,10.0,84,0.00,,,0.12,meteohub,2013-02-15 00:17:00,
2013-02-14 18:22:00,30.7,26.4,29.92,WNW,284,6.0,9.0,84,0.00,,,0.12,meteohub,2013-02-15 00:22:00,
2013-02-14 18:27:00,30.7,26.2,29.92,West,265,3.0,9.0,83,0.00,,,0.12,meteohub,2013-02-15 00:27:00,
2013-02-14 18:32:00,30.6,26.1,29.93,West,263,4.0,8.0,83,0.00,,,0.12,meteohub,2013-02-15 00:32:00,
2013-02-14 18:37:00,30.6,26.1,29.93,WSW,248,4.0,9.0,83,0.00,,,0.12,meteohub,2013-02-15 00:37:00,
2013-02-14 18:42:00,30.4,25.9,29.93,West,263,5.0,9.0,83,0.00,,,0.12,meteohub,2013-02-15 00:42:00,
2013-02-14 18:47:00,30.4,25.9,29.93,West,261,3.0,9.0,83,0.00,,,0.12,meteohub,2013-02-15 00:47:00,
2013-02-14 18:52:00,30.4,25.9,29.93,WSW,257,3.0,9.0,83,0.00,,,0.12,meteohub,2013-02-15 00:52:00,
2013-02-14 18:57:00,30.4,25.9,29.94,West,279,4.0,9.0,83,0.00,,,0.12,meteohub,2013-02-15 00:57:00,
2013-02-14 19:02:00,30.2,25.7,29.94,West,271,2.0,7.0,83,0.00,,,0.12,meteohub,2013-02-15 01:02:00,
2013-02-14 19:07:00,30.0,25.5,29.94,West,269,3.0,7.0,83,0.00,,,0.12,meteohub,2013-02-15 01:07:00,
2013-02-14 19:12:00,30.0,25.5,29.94,West,265,3.0,5.0,83,0.00,,,0.12,meteohub,2013-02-15 01:12:00,
2013-02-14 19:17:00,30.0,25.5,29.94,West,259,4.0,5.0,83,0.00,,,0.12,meteohub,2013-02-15 01:17:00,
2013-02-14 19:22:00,30.0,25.2,29.94,West,270,3.0,7.0,82,0.00,,,0.12,meteohub,2013-02-15 01:22:00,
2013-02-14 19:27:00,30.0,25.2,29.94,West,266,4.0,7.0,82,0.00,,,0.12,meteohub,2013-02-15 01:27:00,
2013-02-14 19:32:00,30.0,25.2,29.94,West,281,5.0,7.0,82,0.00,,,0.12,meteohub,2013-02-15 01:32:00,
2013-02-14 19:37:00,30.0,25.0,29.94,WNW,290,4.0,7.0,81,0.00,,,0.12,meteohub,2013-02-15 01:37:00,
2013-02-14 19:42:00,30.0,25.0,29.94,WSW,258,4.0,7.0,81,0.00,,,0.12,meteohub,2013-02-15 01:42:00,
2013-02-14 19:47:00,30.0,25.0,29.94,West,259,4.0,8.0,81,0.00,,,0.12,meteohub,2013-02-15 01:47:00,
2013-02-14 19:52:00,29.8,24.8,29.94,WSW,250,0.0,8.0,81,0.00,,,0.12,meteohub,2013-02-15 01:52:00,
2013-02-14 19:57:00,29.8,24.8,29.94,WSW,250,2.0,8.0,81,0.00,,,0.12,meteohub,2013-02-15 01:57:00,
2013-02-14 20:02:00,29.7,24.6,29.94,West,269,5.0,6.0,81,0.00,,,0.12,meteohub,2013-02-15 02:02:00,
2013-02-14 20:07:00,29.7,24.6,29.95,West,269,0.0,6.0,81,0.00,,,0.12,meteohub,2013-02-15 02:07:00,
2013-02-14 20:12:00,29.5,24.4,29.95,West,269,0.0,5.0,81,0.00,,,0.12,meteohub,2013-02-15 02:12:00,
2013-02-14 20:17:00,29.5,24.4,29.95,West,269,0.0,5.0,81,0.00,,,0.12,meteohub,2013-02-15 02:17:00,
2013-02-14 20:22:00,29.3,24.3,29.95,West,269,0.0,3.0,81,0.00,,,0.12,meteohub,2013-02-15 02:22:00,
2013-02-14 20:27:00,29.1,24.1,29.95,West,270,0.0,3.0,81,0.00,,,0.12,meteohub,2013-02-15 02:27:00,
2013-02-14 20:32:00,28.9,23.9,29.96,West,270,1.0,3.0,81,0.00,,,0.12,meteohub,2013-02-15 02:32:00,
2013-02-14 20:37:00,28.9,23.9,29.96,West,271,0.0,3.0,81,0.00,,,0.12,meteohub,2013-02-15 02:37:00,
2013-02-14 20:42:00,28.8,23.7,29.96,WNW,300,1.0,3.0,81,0.00,,,0.12,meteohub,2013-02-15 02:42:00,
2013-02-14 20:47:00,28.8,23.7,29.96,WNW,300,1.0,3.0,81,0.00,,,0.12,meteohub,2013-02-15 02:47:00,
2013-02-14 20:52:00,28.8,23.7,29.96,WNW,300,0.0,3.0,81,0.00,,,0.12,meteohub,2013-02-15 02:52:00,
2013-02-14 20:57:00,28.8,23.9,29.97,WNW,300,0.0,2.0,82,0.00,,,0.12,meteohub,2013-02-15 02:57:00,
2013-02-14 21:02:00,28.6,23.7,29.97,WNW,300,2.0,2.0,82,0.00,,,0.12,meteohub,2013-02-15 03:02:00,
2013-02-14 21:07:00,28.8,23.9,29.97,WNW,300,0.0,2.0,82,0.00,,,0.12,meteohub,2013-02-15 03:07:00,
2013-02-14 21:12:00,28.8,24.3,29.97,NW,324,4.0,5.0,83,0.00,,,0.12,meteohub,2013-02-15 03:12:00,
2013-02-14 21:17:00,28.9,24.4,29.97,NNW,336,6.0,8.0,83,0.00,,,0.12,meteohub,2013-02-15 03:17:00,
2013-02-14 21:22:00,28.9,24.8,29.97,NNW,337,8.0,9.0,84,0.00,,,0.12,meteohub,2013-02-15 03:22:00,
2013-02-14 21:27:00,28.9,24.8,29.97,NNW,346,6.0,9.0,84,0.00,,,0.12,meteohub,2013-02-15 03:27:00,
2013-02-14 21:32:00,28.8,24.8,29.98,NNE,17,6.0,9.0,85,0.00,,,0.12,meteohub,2013-02-15 03:32:00,
2013-02-14 21:37:00,28.4,25.0,29.98,North,9,5.0,9.0,87,0.00,,,0.12,meteohub,2013-02-15 03:37:00,
2013-02-14 21:42:00,28.2,25.2,29.98,North,5,5.0,9.0,88,0.00,,,0.12,meteohub,2013-02-15 03:42:00,
2013-02-14 21:47:00,28.0,25.2,29.98,North,0,7.0,8.0,89,0.00,,,0.12,meteohub,2013-02-15 03:47:00,
2013-02-14 21:52:00,27.9,25.0,29.98,North,0,8.0,9.0,89,0.00,,,0.12,meteohub,2013-02-15 03:52:00,
2013-02-14 21:57:00,27.9,25.3,29.98,North,355,7.0,9.0,90,0.00,,,0.12,meteohub,2013-02-15 03:57:00,
2013-02-14 22:02:00,27.5,25.0,29.98,NNE,15,7.0,10.0,90,0.00,,,0.12,meteohub,2013-02-15 04:02:00,
2013-02-14 22:07:00,27.3,25.0,29.99,North,355,8.0,10.0,91,0.00,,,0.12,meteohub,2013-02-15 04:07:00,
2013-02-14 22:13:00,27.1,24.8,29.99,North,355,7.0,10.0,91,0.00,,,0.12,meteohub,2013-02-15 04:13:00,
2013-02-14 22:18:00,27.0,25.0,29.99,North,5,7.0,10.0,92,0.00,,,0.12,meteohub,2013-02-15 04:18:00,
2013-02-14 22:23:00,26.8,24.8,29.99,North,0,9.0,10.0,92,0.00,,,0.12,meteohub,2013-02-15 04:23:00,
2013-02-14 22:28:00,26.4,24.4,29.99,NNW,343,16.0,17.0,92,0.00,,,0.12,meteohub,2013-02-15 04:28:00,
2013-02-14 22:34:00,25.9,23.9,30.00,NNW,335,11.0,18.0,92,0.00,,,0.12,meteohub,2013-02-15 04:34:00,
2013-02-14 22:39:00,25.3,23.5,30.00,NNW,348,9.0,18.0,93,0.00,,,0.12,meteohub,2013-02-15 04:39:00,
2013-02-14 22:44:00,25.2,23.4,30.00,North,355,9.0,18.0,93,0.00,,,0.12,meteohub,2013-02-15 04:44:00,
2013-02-14 22:49:00,25.2,25.2,30.00,North,355,8.0,17.0,100,0.00,,,0.12,meteohub,2013-02-15 04:49:00,
2013-02-14 22:54:00,25.2,23.4,30.01,NNW,340,7.0,13.0,93,0.00,,,0.12,meteohub,2013-02-15 04:54:00,
2013-02-14 22:59:00,25.0,23.2,30.01,NNW,345,10.0,13.0,93,0.00,,,0.12,meteohub,2013-02-15 04:59:00,
2013-02-14 23:00:00,25.0,23.2,30.01,NNW,340,8.0,12.0,93,0.00,,,0.12,meteohub,2013-02-15 05:00:00,
2013-02-14 23:01:00,25.0,23.2,30.01,North,350,7.0,12.0,93,0.00,,,0.12,meteohub,2013-02-15 05:01:00,
2013-02-14 23:02:00,25.0,23.2,30.01,NNW,348,8.0,12.0,93,0.00,,,0.12,meteohub,2013-02-15 05:02:00,
2013-02-14 23:07:00,24.8,23.0,30.01,North,350,12.0,12.0,93,0.00,,,0.12,meteohub,2013-02-15 05:07:00,
2013-02-14 23:12:00,24.6,22.8,30.02,NNW,338,10.0,13.0,93,0.00,,,0.12,meteohub,2013-02-15 05:12:00,
2013-02-14 23:17:00,24.6,22.8,30.02,North,355,10.0,13.0,93,0.00,,,0.12,meteohub,2013-02-15 05:17:00,
2013-02-14 23:22:00,24.4,22.6,30.02,NNW,346,10.0,13.0,93,0.00,,,0.12,meteohub,2013-02-15 05:22:00,
2013-02-14 23:28:00,24.3,22.5,30.02,NNW,346,9.0,13.0,93,0.00,,,0.12,meteohub,2013-02-15 05:28:00,
2013-02-14 23:33:00,24.3,22.5,30.03,North,355,8.0,12.0,93,0.00,,,0.12,meteohub,2013-02-15 05:33:00,
2013-02-14 23:38:00,24.1,22.1,30.03,North,0,5.0,12.0,92,0.00,,,0.12,meteohub,2013-02-15 05:38:00,
2013-02-14 23:43:00,24.1,22.1,30.03,North,355,5.0,11.0,92,0.00,,,0.12,meteohub,2013-02-15 05:43:00,
2013-02-14 23:48:00,24.1,22.1,30.04,North,355,6.0,11.0,92,0.00,,,0.12,meteohub,2013-02-15 05:48:00,
2013-02-14 23:54:00,24.1,22.1,30.04,North,350,7.0,9.0,92,0.00,,,0.12,meteohub,2013-02-15 05:54:00,
2013-02-14 23:59:00,23.9,21.9,30.04,NNW,335,13.0,13.0,92,0.00,,,0.12,meteohub,2013-02-15 05:59:00,